Weather in Ohrid

North Macedonia     41°07′14″N   20°48′23″E
temp.,
°C
wind,
m/s
gust,
m/s
humid.,
%
clouds,
%
prec.,
mm/h
press.,
hPa
HPBL,
m
27 november, sat
sat2701:00+8ssw798410 2.0 1005413
04:00+8ssw587634 0.2 1005542
07:00+9ssw7972100 0.3 1006833
10:00+10ssw4768100 0.3 1006871
13:00+11s6765100 0.4 10041096
16:00+11s6667100 0.1 1004766
19:00+10s6772100 0.1 1004514
22:00+9s457294 0.1 1004647
28 november, sun
sun2801:00+8ssw558699 1.4 1004547
04:00+8sw258285 1.1 1005712
07:00+8ssw467998 1.3 1005683
10:00+10s5671100 0.0 1005725
13:00+11ssw5760100 0.1 10021371
16:00+8s91386100 0.8 1002661
19:00+8s81190100 6.1 999564
22:00+8sw2387100 11.9 1000351
29 november, mon
mon2901:00+8wsw3590100 16.6 998619
04:00+8sw368037 3.9 997626
07:00+6w358999 11.3 1000806
10:00+4wnw2395100 7.0 1002393
13:00+5wsw1290100 8.3 1000453
16:00+4w2295100 2.7 1001439
19:00+6s7118393 5.1 999792
22:00+4sw2493100 2.7 1001662
30 november, tue
tue3001:00+4wsw468198 4.6 1002732
04:00+3wsw459580 0.9 1003469
07:00+3w228422 1.5 1004412
10:00+2wnw2299100 2.3 1008260
13:00+2nw2297100 9.4 1010334
16:00+1nne4492100 4.3 1014440
19:00+1n5596100 8.1 1018572
22:000nw338883 2.0 1020553
1 december, wed
wed101:00−1wnw238223 2.1 1021399
04:00−2wnw227912 0.0 1023292
07:000w23691 0.0 1022371
10:00+2w23695 0.0 1022501
13:00+4w347120 0.0 1021829
16:00+4wsw23724 0.0 1020527
19:00+3wsw22712 0.0 1020372
22:00+3wsw226497 0.0 1020321